COSMOS 1275 DEB, 12706

Orbit data source: Space-Track

COSMOS 1275 DEB, 12706 is space debris in LEO originally from a launch on Thu, 04 Jun 1981 UTC launched from the Plesetsk Missile And Space Complex (PKMTR). Debris objects in space refer to the collection of defunct objects orbiting the Earth. Examples of debris include non-operational satellites, rocket bodies, and fragments generated from explosions, collisions, or faulty payload assembly.

Loading next visibility...
Identifier
12706, 1981-053BA
Orbit
LEO
Country
Flag of CISCIS
Related business
Manufacturer
Unknown
Mission
Spacecraft
Bus & Motor
Unknown
Mass
Unknown
Launch date (UTC)
1981-06-04 (45 years ago)
Launch vehicle
Unknown
Launch site
Plesetsk Missile And Space Complex (PKMTR)
Object type
Payload
Rocket body
Debris
Shape & HBR
Unknown shape, 0.1 m
Radar Cross Section
Medium (>0.1 m² and <1 m²)

Expand to show TLE details & history
Last TLE update: 1 day ago

TLE from 1 day ago
0 COSMOS 1275 DEB
1 12706U 81053BA  26171.40648082  .00001565  00000-0  14000-2 0  9996
2 12706  82.8826 297.6870 0102905  28.1297  35.2676 13.81448139239530
Epoch: 2026-06-20T09:45Z
TLE epoch observation values (Epoch: 2026-06-20T09:45:19.942Z)
Latitude
63.2809°
Longitude
-102.98191°
Altitude
908.245 km
Speed
7.435 km/s
True Right ascension
20h 47m 53s
True Declination
63° 08' 43"
Sunlit
Object was in daylight at epoch
Visualization orbit readout
Latitude
Unknown
Longitude
Unknown
Altitude
Unknown
Speed
Unknown
Apparent Right ascension
Unknown
Apparent Declination
Unknown
Sunlit
N/A
Visualization observer readout
Local Sidereal Time
06:11:56
Azimuth
Unknown
Elevation
Unknown
Doppler factor
Unknown
Orbital elements
Apogee altitude
1,031.367 km
Perigee altitude
880.426 km
Semi-major axis
7,334.034 km
Eccentricity
0.01029
Inclination
82.8826°
RAAN
297.687°
Arg. of periapsis
28.1297°
True anomaly
35.95567°
Mean anomaly
35.2676°
Eccentric anomaly
35.61091°
Mean motion
3.45564 °/min
Orbital period
104.18 mins
BSTAR
0.0014
Loading maneuver chart data...
Computing Atmospheric mass density...

Documentation

Showing up to 5 results
|